Date String (YYYY-MM-DD hh:mm:ss) UTC,Instrument flags,Ambient pressure (hPa),Sample flow (lpm),Bypass flow (lpm),Sample temperature (°C),Ambient temperature (°C),ASC tube jacket temperature (°C),LED temperature (°C),Box temperature (°C),Sample RH (%),Span deviation,Mass concentration (μg/m³),Mass concentration (μg/m³),Mass concentration (μg/m³)
DateTimeUTC,F1_M11,P_M11,Q1_M11,Q2_M11,T1_M11,T2_M11,T3_M11,T4_M11,T5_M11,U1_M11,ZSPAN_M11,X0_M11,X2_M11,X1_M11
2022-11-11 16:00:00,,0828.8,4.99,0.00,22.7,21.3,00.0,31.5,24.5,10.1,0000.0,0012.81,0004.63,0004.05
2022-11-11 16:01:00,,0828.9,5.00,0.00,22.7,21.3,00.0,31.6,24.5,10.1,0000.0,0013.21,0004.67,0004.06
2022-11-11 16:02:00,,0829.2,5.00,0.00,22.7,21.3,00.0,31.5,24.4,10.2,0000.0,0012.41,0004.68,0004.06
2022-11-11 16:03:00,,0828.9,5.01,0.00,22.7,21.5,00.0,31.5,24.5,10.2,0000.0,0012.46,0004.68,0004.07
2022-11-11 16:04:00,,0828.8,5.00,0.00,22.8,22.4,00.0,31.5,24.7,10.2,0000.0,0012.08,0004.69,0004.08
2022-11-11 16:05:00,,0828.8,5.01,0.00,22.8,22.9,00.0,31.5,24.9,10.1,0000.0,0011.08,0004.69,0004.09
2022-11-11 16:06:00,,0828.8,4.98,0.00,22.9,22.7,00.0,31.5,24.9,10.0,0000.0,0011.16,0004.70,0004.10
2022-11-11 16:07:00,,0828.9,5.01,0.00,22.9,22.2,00.0,31.6,24.8,09.9,0000.0,0011.32,0004.70,0004.11
2022-11-11 16:08:00,,0828.9,5.02,0.00,22.9,22.0,00.0,31.6,24.8,09.9,0000.0,0011.09,0004.71,0004.11
2022-11-11 16:09:00,,0828.8,5.00,0.00,22.9,21.8,00.0,31.6,24.7,09.9,0000.0,0010.53,0004.71,0004.11
2022-11-11 16:10:00,,0828.8,4.99,0.00,22.8,21.7,00.0,31.6,24.7,10.1,0000.0,0010.32,0004.71,0004.12
2022-11-11 16:11:00,,0828.9,4.99,0.00,22.8,21.6,00.0,31.6,24.7,10.1,0000.0,0009.85,0004.70,0004.12
2022-11-11 16:12:00,,0829.2,5.01,0.00,22.8,21.6,00.0,31.6,24.6,10.0,0000.0,0009.64,0004.73,0004.13
2022-11-11 16:13:00,,0829.0,4.99,0.00,22.8,21.6,00.0,31.6,24.6,10.0,0000.0,0009.88,0004.72,0004.14
2022-11-11 16:14:00,,0828.7,5.00,0.00,22.8,21.5,00.0,31.6,24.6,10.0,0000.0,0010.17,0004.76,0004.16
2022-11-11 16:15:00,,0828.7,5.00,0.00,22.8,21.5,00.0,31.6,24.6,10.0,0000.0,0010.76,0004.80,0004.16
2022-11-11 16:16:00,,0828.7,5.01,0.00,22.8,21.4,00.0,31.6,24.6,10.0,0000.0,0011.04,0004.83,0004.17
2022-11-11 16:17:00,,0828.7,5.00,0.00,22.7,21.2,00.0,31.6,24.5,10.0,0000.0,0011.58,0004.85,0004.17
2022-11-11 16:18:00,,0828.7,5.00,0.00,22.7,21.1,00.0,31.6,24.5,10.0,0000.0,0011.57,0004.91,0004.18
2022-11-11 16:19:00,,0828.7,4.99,0.00,22.7,21.1,00.0,31.6,24.5,10.1,0000.0,0011.70,0004.95,0004.19
2022-11-11 16:20:00,,0828.7,5.00,0.00,22.7,21.0,00.0,31.6,24.5,10.1,0000.0,0012.48,0004.99,0004.21
2022-11-11 16:21:00,,0828.7,5.01,0.00,22.6,21.0,00.0,31.6,24.4,10.1,0000.0,0012.45,0005.05,0004.23
2022-11-11 16:22:00,,0828.7,5.00,0.00,22.6,21.0,00.0,31.5,24.4,10.0,0000.0,0012.87,0005.16,0004.24
2022-11-11 16:23:00,,0828.9,4.99,0.00,22.6,21.1,00.0,31.5,24.4,10.1,0000.0,0013.14,0005.22,0004.26
2022-11-11 16:24:00,,0828.8,4.98,0.00,22.6,21.1,00.0,31.5,24.4,10.1,0000.0,0012.73,0005.30,0004.28
2022-11-11 16:25:00,,0829.0,5.00,0.00,22.6,21.2,00.0,31.5,24.4,10.3,0000.0,0012.47,0005.29,0004.28
2022-11-11 16:26:00,,0829.4,5.01,0.00,22.7,22.0,00.0,31.5,24.6,10.2,0000.0,0012.47,0005.31,0004.29
2022-11-11 16:27:00,,0829.2,4.99,0.00,22.8,22.8,00.0,31.5,24.8,10.1,0000.0,0012.81,0005.31,0004.28
2022-11-11 16:28:00,,0829.4,5.01,0.00,22.8,22.6,00.0,31.5,24.8,10.0,0000.0,0012.36,0005.31,0004.28
2022-11-11 16:29:00,,0829.1,5.00,0.00,22.8,22.1,00.0,31.5,24.7,10.0,0000.0,0012.38,0005.31,0004.28
2022-11-11 16:30:00,,0828.9,4.99,0.00,22.7,21.7,00.0,31.5,24.6,10.0,0000.0,0012.84,0005.32,0004.29
2022-11-11 16:31:00,,0829.2,5.00,0.00,22.7,21.4,00.0,31.5,24.5,10.1,0000.0,0012.92,0005.37,0004.29
2022-11-11 16:32:00,,0829.2,5.00,0.00,22.7,21.2,00.0,31.5,24.5,10.2,0000.0,0013.11,0005.32,0004.29
2022-11-11 16:33:00,,0829.4,5.01,0.00,22.7,21.2,00.0,31.5,24.4,10.3,0000.0,0013.16,0005.28,0004.28
2022-11-11 16:34:00,,0829.3,4.99,0.00,22.6,21.2,00.0,31.5,24.4,10.2,0000.0,0013.61,0005.27,0004.28
2022-11-11 16:35:00,,0828.9,5.00,0.00,22.6,21.2,00.0,31.5,24.4,10.2,0000.0,0014.28,0005.26,0004.29
2022-11-11 16:36:00,,0828.8,5.00,0.00,22.6,21.2,00.0,31.5,24.4,10.2,0000.0,0014.73,0005.32,0004.29
2022-11-11 16:37:00,,0828.7,5.00,0.00,22.6,21.2,00.0,31.5,24.4,10.1,0000.0,0014.35,0005.37,0004.31
2022-11-11 16:38:00,,0828.8,4.99,0.00,22.6,21.2,00.0,31.5,24.4,10.2,0000.0,0014.36,0005.40,0004.32
2022-11-11 16:39:00,,0828.8,5.00,0.00,22.6,21.3,00.0,31.5,24.4,10.3,0000.0,0014.03,0005.41,0004.33
2022-11-11 16:40:00,,0828.7,5.00,0.00,22.6,21.1,00.0,31.5,24.4,10.3,0000.0,0013.96,0005.40,0004.34
2022-11-11 16:41:00,,0828.8,5.01,0.00,22.6,21.0,00.0,31.5,24.3,10.3,0000.0,0013.48,0005.37,0004.35
2022-11-11 16:42:00,,0828.7,5.00,0.00,22.5,21.0,00.0,31.5,24.3,10.3,0000.0,0013.05,0005.37,0004.36
2022-11-11 16:43:00,,0828.6,4.99,0.00,22.5,21.0,00.0,31.5,24.3,10.3,0000.0,0012.46,0005.41,0004.37
2022-11-11 16:44:00,,0828.9,5.00,0.00,22.5,21.1,00.0,31.5,24.3,10.4,0000.0,0012.04,0005.42,0004.39
2022-11-11 16:45:00,,0828.9,5.01,0.00,22.5,21.1,00.0,31.4,24.3,10.4,0000.0,0011.69,0005.43,0004.41
2022-11-11 16:46:00,,0828.8,5.00,0.00,22.5,21.1,00.0,31.4,24.3,10.5,0000.0,0011.45,0005.44,0004.42
2022-11-11 16:47:00,,0829.1,5.01,0.00,22.5,21.2,00.0,31.4,24.3,10.5,0000.0,0011.42,0005.45,0004.47
2022-11-11 16:48:00,,0829.2,5.00,0.00,22.5,21.1,00.0,31.4,24.3,10.6,0000.0,0011.77,0005.45,0004.52
2022-11-11 16:49:00,,0829.1,4.99,0.00,22.5,21.1,00.0,31.4,24.3,10.6,0000.0,0011.74,0005.48,0004.56
2022-11-11 16:50:00,,0829.2,5.00,0.00,22.5,21.1,00.0,31.4,24.2,10.6,0000.0,0011.86,0005.56,0004.61
2022-11-11 16:51:00,,0829.2,5.00,0.00,22.5,21.1,00.0,31.4,24.2,10.6,0000.0,0012.17,0005.61,0004.64
2022-11-11 16:52:00,,0829.1,5.01,0.00,22.4,21.1,00.0,31.4,24.2,10.7,0000.0,0012.60,0005.70,0004.68
2022-11-11 16:53:00,,0828.7,4.99,0.00,22.4,21.1,00.0,31.4,24.2,10.6,0000.0,0013.21,0005.67,0004.69
2022-11-11 16:54:00,,0828.6,5.01,0.00,22.4,21.1,00.0,31.4,24.2,10.6,0000.0,0013.49,0005.71,0004.71
2022-11-11 16:55:00,,0828.8,4.98,0.00,22.5,21.8,00.0,31.3,24.4,10.6,0000.0,0014.08,0005.78,0004.73
2022-11-11 16:56:00,,0828.9,5.02,0.00,22.6,22.8,00.0,31.3,24.7,10.6,0000.0,0014.00,0005.78,0004.75
2022-11-11 16:57:00,,0829.0,4.99,0.00,22.7,22.9,00.0,31.4,24.8,10.7,0000.0,0013.89,0005.77,0004.76
2022-11-11 16:58:00,,0828.8,5.01,0.00,22.7,22.5,00.0,31.4,24.7,10.6,0000.0,0013.36,0005.78,0004.76
2022-11-11 16:59:00,,0828.9,4.99,0.00,22.7,22.1,00.0,31.4,24.7,10.7,0000.0,0012.95,0005.74,0004.73
